Theta_e
332 319 317 319 314 313 310 303 292 293 295 289 287 290 291 298 300 300 315 320 315 320 320 321 321 319 316 316 318 320 321 316 316 308 308 324 338 336 336 339 339 343 344 345 345 347 350 353 354 355 356 357 357 358 358 359 359 359 358 357 357 356 356 356 356 356 355 356 356 356 356 356 356 356 355 355 354 353 353 352 351 351 350 349 349 348 350 350 349 349 349 349 351 351 352 351 351
316 313 311 314 311 310 304 299 290 290 289 286 289 291 293 307 308 307 315 317 319 321 324 321 321 322 323 322 321 321 319 322 324 322 327 334 335 337 341 342 345 344 345 345 345 345 349 352 354 355 355 355 356 357 357 358 358 358 358 357 357 357 356 356 356 356 356 356 356 356 356 356 355 355 355 354 353 353 353 351 351 350 350 349 349 349 349 349 350 350 350 350 351 351 351 352 352
318 310 307 311 312 309 305 301 292 287 287 285 288 290 305 313 314 317 319 320 323 324 325 324 324 322 318 318 315 315 311 325 326 329 328 336 330 334 341 344 345 344 346 345 345 346 348 352 354 354 354 355 355 355 356 356 358 357 357 357 357 357 356 356 356 356 356 356 356 356 356 356 355 355 354 353 352 353 352 351 350 350 350 350 350 350 350 350 351 350 351 350 351 350 351 351 351
315 312 306 307 303 304 297 296 289 286 287 286 291 301 307 312 315 317 321 322 323 324 323 321 319 325 316 311 315 320 319 320 328 328 326 330 333 338 340 343 343 343 343 344 345 346 349 352 353 354 353 353 354 355 355 355 355 357 356 357 357 357 356 356 355 355 355 355 355 355 355 355 355 354 353 352 352 352 352 350 350 350 350 350 350 351 351 351 351 350 350 350 350 351 351 351 351
308 312 309 308 301 300 297 294 291 289 288 287 292 304 313 315 316 317 319 322 322 322 321 320 317 323 324 322 323 314 315 325 327 331 328 334 340 339 340 345 343 343 344 345 345 345 349 353 353 353 353 354 353 353 354 354 355 355 355 355 356 356 356 355 355 355 355 355 355 355 354 354 354 353 352 353 351 351 351 350 351 350 351 351 351 351 351 351 351 351 351 351 351 351 351 350 350
307 305 308 307 301 304 299 295 293 290 293 292 292 304 314 317 316 317 318 320 322 322 321 319 316 318 317 320 325 319 325 317 326 330 332 331 340 342 342 344 342 343 344 345 345 344 345 352 352 352 352 352 353 353 353 353 354 355 354 354 355 355 355 355 355 355 354 354 354 354 355 353 353 352 352 352 351 351 350 350 351 351 351 351 351 350 351 351 351 351 351 350 351 350 350 350 349
303 302 304 304 303 302 292 290 291 291 296 298 298 310 315 318 319 319 318 318 321 321 323 319 321 319 314 322 323 328 331 332 328 328 335 338 342 342 342 340 340 341 344 345 346 347 349 352 351 351 352 352 353 353 353 352 353 354 354 354 355 355 354 354 354 354 354 353 353 353 353 354 353 353 353 352 352 351 351 351 351 351 351 350 350 351 351 351 352 351 351 350 350 350 349 349 349
311 301 303 296 295 297 292 292 292 293 294 306 308 312 315 318 319 317 316 314 314 315 319 321 321 317 317 325 314 328 331 334 333 336 337 339 341 343 342 340 339 340 344 346 347 347 352 351 350 351 351 352 352 352 352 352 352 353 353 353 353 354 354 353 353 352 353 353 353 352 353 353 354 354 353 352 352 351 351 351 351 351 351 350 351 351 350 350 350 351 351 350 349 349 349 349 349
304 303 305 298 293 294 290 291 292 297 299 312 314 317 321 318 319 317 315 317 317 318 318 320 318 313 316 319 318 326 329 333 334 339 338 339 341 343 342 341 341 342 344 345 345 346 346 350 349 351 351 352 352 352 352 351 352 352 352 352 353 353 353 353 352 352 352 352 352 352 352 353 354 353 353 352 352 352 352 351 351 351 351 351 351 350 350 350 351 351 351 350 349 349 349 349 348
302 303 296 295 292 291 288 289 291 292 299 312 314 315 316 318 317 318 316 315 316 317 317 320 319 315 320 316 320 324 326 333 335 337 339 340 341 340 338 340 342 342 343 344 344 346 348 350 349 350 350 351 351 351 351 351 352 352 352 352 353 353 353 353 353 352 351 351 351 351 351 351 353 353 353 352 352 352 352 351 351 352 352 351 350 350 350 351 351 351 350 350 350 349 349 350 348
298 301 301 295 290 290 290 289 292 299 308 312 314 317 318 318 317 315 316 315 317 315 317 320 317 318 319 318 319 329 332 334 334 334 337 339 340 338 337 339 339 340 340 341 345 345 346 347 350 350 350 350 350 350 350 350 350 351 351 352 353 352 353 353 352 352 351 350 350 350 351 351 352 353 353 352 351 352 352 352 352 352 351 350 350 351 351 351 350 351 350 350 350 350 350 350 350
297 296 297 291 292 291 289 290 293 299 308 311 311 316 318 317 316 313 313 312 315 315 315 318 313 321 316 317 317 327 332 332 332 335 338 338 336 336 335 335 335 336 337 337 337 339 343 345 347 349 350 350 350 350 350 350 350 350 351 352 352 352 352 352 352 352 351 350 350 351 351 352 352 352 352 352 351 352 352 352 352 351 351 351 351 351 351 351 351 351 350 350 351 350 350 350 349
299 296 294 292 289 290 292 292 292 303 301 306 310 315 319 316 314 314 314 315 314 313 314 319 321 318 312 315 321 328 328 333 335 336 338 337 335 335 335 335 334 334 335 338 336 336 338 344 345 346 348 350 350 350 350 350 350 350 351 351 351 352 352 352 352 352 352 352 351 351 351 351 351 351 351 352 351 352 352 352 351 351 351 351 351 351 351 351 351 351 350 351 351 351 350 350 349
300 297 294 293 292 291 291 291 294 300 301 309 313 315 316 315 315 316 315 312 313 312 318 323 322 320 316 318 317 320 326 335 335 335 337 336 336 335 335 334 334 333 334 335 335 335 334 335 343 344 344 344 344 348 349 350 350 350 350 350 350 350 351 351 351 351 351 351 351 350 350 351 350 350 350 351 351 351 352 351 351 352 352 351 351 351 351 351 351 351 350 351 351 351 350 350 349
301 300 297 293 291 290 291 290 294 300 301 309 313 315 315 318 318 317 315 313 315 321 323 325 319 312 307 314 313 320 327 333 334 335 337 336 337 335 335 334 333 332 332 334 333 334 335 335 340 344 346 344 343 341 342 346 349 350 350 350 350 350 350 350 350 351 351 351 351 350 351 351 351 351 351 351 351 351 351 351 352 351 351 351 351 351 351 351 351 351 351 352 352 350 350 349 349
301 299 298 293 289 289 293 293 298 300 300 311 315 318 317 318 320 316 317 319 317 322 322 315 321 315 317 317 319 327 332 333 334 336 334 335 337 336 334 332 332 333 333 333 333 333 333 334 341 343 343 343 344 342 342 342 348 348 349 348 349 350 350 350 351 351 352 351 351 351 350 351 351 349 351 350 351 351 351 350 351 351 351 351 350 350 351 351 352 352 352 351 351 350 349 349 349
301 301 291 288 290 290 291 296 299 298 308 314 317 317 313 313 319 319 322 321 316 315 317 319 318 323 319 320 328 332 333 335 336 337 336 334 332 331 332 333 334 334 337 336 334 333 334 339 341 341 343 344 343 344 341 341 344 345 346 349 349 349 350 350 351 352 352 350 350 349 349 348 345 345 346 346 351 350 350 350 350 351 350 351 351 351 351 351 351 351 351 351 351 350 350 349 349
300 293 291 289 289 291 292 297 299 308 310 312 314 316 313 311 315 316 318 315 315 315 315 318 321 322 326 329 333 335 334 334 336 334 331 330 330 330 329 330 329 330 332 334 336 337 337 337 339 340 340 343 344 344 344 343 343 344 337 340 342 345 349 350 348 345 351 346 349 348 346 348 344 344 343 350 346 348 348 350 349 350 350 351 352 352 351 351 351 351 351 351 351 350 350 339 341
297 292 291 289 290 293 297 299 308 311 310 313 315 316 314 312 314 315 311 311 312 311 313 317 317 321 326 329 331 332 332 331 332 331 330 329 329 328 327 327 327 328 329 330 331 332 332 332 334 336 337 340 342 343 344 343 342 340 339 339 343 346 347 347 343 347 343 343 345 346 347 344 343 344 344 349 348 351 349 349 349 349 350 350 352 352 351 351 352 351 351 351 350 350 340 336 337
297 293 291 288 293 297 299 302 308 314 314 313 314 315 315 315 315 316 311 310 312 309 310 313 315 317 321 325 329 330 331 330 330 329 329 329 328 327 326 325 326 327 328 329 329 328 325 325 326 330 333 334 335 334 340 339 340 339 339 340 339 339 337 343 342 342 342 343 343 343 344 344 344 342 352 351 351 348 347 350 350 347 348 350 350 352 351 351 351 351 352 351 350 346 337 339 339
296 293 292 294 296 296 298 300 312 315 315 314 314 315 313 315 315 314 312 309 310 312 315 314 314 317 321 323 325 327 327 326 326 326 325 326 326 327 326 326 325 325 325 324 327 325 323 322 324 325 327 327 329 330 335 336 337 337 338 339 339 339 339 338 339 340 341 342 342 343 344 344 344 342 343 343 344 345 342 342 343 339 342 342 349 342 343 348 347 346 345 347 341 341 339 337 338
298 294 294 297 297 297 299 301 303 311 315 314 313 311 311 316 315 313 312 307 307 312 317 319 319 320 321 322 323 323 322 322 322 322 321 320 319 319 320 319 321 320 323 319 320 323 322 322 323 323 325 324 325 328 333 337 338 335 337 340 339 339 341 339 339 337 339 340 341 341 345 339 341 342 341 339 343 344 343 342 342 342 340 341 347 340 341 342 342 345 346 345 342 341 340 338 340
293 294 298 298 299 298 301 302 304 305 309 311 310 312 314 312 311 312 312 311 314 320 322 322 322 322 321 321 321 320 320 320 319 318 318 317 317 317 317 317 317 317 317 317 319 322 323 321 322 323 323 324 324 326 329 330 332 336 336 337 337 337 338 338 336 336 337 336 338 340 340 340 340 339 339 339 341 343 343 341 341 341 341 340 343 340 339 340 342 343 342 342 342 341 342 340 338
294 295 298 298 299 298 298 301 307 309 309 310 313 315 311 311 307 313 312 315 319 322 323 322 322 322 322 319 319 319 318 317 316 317 317 317 317 316 316 316 316 316 317 317 318 319 323 320 321 322 323 324 322 325 325 325 328 333 337 341 339 340 340 337 337 337 338 335 337 337 344 338 337 337 339 339 340 341 341 342 341 340 342 341 343 341 339 338 340 340 341 341 344 343 343 341 339
296 296 299 299 299 298 299 300 308 310 310 313 313 310 310 312 311 313 312 316 320 321 322 322 321 321 320 319 318 317 316 315 315 315 316 315 316 317 316 315 316 316 315 316 317 319 321 323 320 320 321 322 322 324 324 323 325 328 329 334 334 346 336 336 335 336 336 336 336 337 341 338 335 334 334 336 337 341 340 340 340 341 341 341 341 339 338 337 339 339 338 342 341 340 342 340 339
299 299 299 299 298 299 298 298 303 309 311 313 310 309 311 313 316 311 313 316 320 321 321 320 320 319 318 318 317 315 314 314 314 314 314 314 315 314 313 314 314 314 315 316 316 316 320 321 319 319 318 322 322 322 323 322 323 324 326 329 333 340 333 335 336 335 336 336 335 335 336 340 334 334 334 336 335 337 338 339 339 340 341 340 339 339 338 336 337 337 337 337 338 339 339 338 338
300 299 299 299 299 299 298 298 298 302 309 312 309 309 310 314 312 305 315 317 320 320 319 319 318 317 317 316 315 314 313 312 312 313 313 313 313 312 312 312 312 313 316 315 315 315 319 317 319 319 317 322 321 321 323 321 322 322 325 326 330 335 336 338 336 335 334 337 336 335 337 340 338 336 334 335 335 335 334 334 338 338 338 337 338 338 338 337 335 335 336 337 337 337 336 338 338
301 300 299 299 299 298 298 299 298 300 303 311 311 309 311 312 312 308 313 318 320 317 317 317 317 316 315 314 313 313 312 313 313 313 311 311 311 312 311 311 312 313 314 314 315 317 316 316 317 319 318 318 320 320 323 320 320 322 326 325 327 333 337 333 335 334 338 336 337 335 334 335 341 337 336 334 332 333 333 335 335 335 337 337 338 338 337 337 338 341 340 337 337 338 337 338 338
300 299 295 297 298 297 297 298 300 298 302 310 308 303 303 307 307 312 316 318 318 316 315 316 315 314 313 312 312 311 311 312 312 312 312 311 311 312 311 312 312 312 313 315 315 317 316 316 318 317 319 315 318 319 318 318 320 321 322 324 328 334 335 334 332 333 336 336 333 333 335 337 338 335 336 335 338 333 334 334 334 335 335 336 337 337 338 339 337 336 338 338 336 336 337 335 338
299 298 294 294 293 292 298 300 298 298 301 305 303 290 295 304 311 314 317 316 315 314 313 313 313 312 311 311 311 311 312 312 311 311 311 311 311 311 312 314 316 314 314 313 314 315 319 318 318 318 323 314 320 318 318 316 319 319 321 323 328 329 332 333 335 333 334 337 335 335 335 336 338 336 338 336 337 334 334 333 334 335 336 335 337 337 336 335 334 335 337 338 340 335 335 335 334
293 297 293 290 290 291 297 299 298 298 301 304 305 292 295 304 311 315 316 316 313 311 311 311 311 310 310 310 310 310 311 311 312 312 313 313 313 313 312 313 313 313 314 313 314 314 316 316 320 314 320 315 316 316 315 316 318 317 317 321 322 325 330 329 331 333 332 333 333 333 335 336 337 338 338 335 335 334 333 332 333 335 336 335 336 335 335 335 334 334 335 334 334 334 335 336 333
294 289 286 291 289 293 298 303 299 297 300 306 303 294 294 302 309 314 316 315 313 310 310 310 309 309 309 309 309 309 310 312 312 313 313 313 313 312 312 312 313 313 313 313 314 314 314 314 317 312 313 315 314 318 314 315 316 316 317 323 319 324 325 327 329 332 334 332 333 333 333 335 337 337 337 335 337 335 334 332 333 334 334 335 335 335 335 336 335 334 335 334 332 332 333 332 333
294 290 292 291 290 294 297 304 303 300 301 302 303 295 299 299 308 311 314 313 312 309 308 308 308 308 308 308 309 309 309 309 310 311 312 312 313 313 313 312 313 313 313 312 312 312 314 314 315 313 312 314 314 315 315 314 315 316 317 317 319 322 324 326 329 331 332 332 332 332 332 334 336 337 338 338 335 334 335 334 333 333 335 334 334 335 335 336 334 334 333 335 332 332 333 333 333
286 292 290 294 291 293 291 300 303 303 300 300 304 299 298 299 304 303 312 312 310 307 307 307 307 307 308 308 308 308 308 308 309 310 312 313 313 314 314 320 315 314 316 314 313 313 313 314 314 316 313 315 313 315 315 314 315 316 316 316 322 319 322 326 329 330 330 330 331 331 333 334 337 336 337 337 336 334 333 335 334 334 335 333 332 333 334 335 334 334 332 333 333 331 332 333 332
291 290 289 292 296 294 294 295 299 301 300 300 301 300 300 300 301 302 306 310 308 306 306 306 306 306 307 307 308 308 308 308 309 311 313 314 314 315 315 314 313 313 313 314 313 311 312 313 314 313 313 313 313 314 315 313 314 316 315 316 316 318 319 325 330 330 329 329 329 332 332 334 335 335 336 337 335 334 335 335 335 334 335 332 331 331 332 333 332 332 332 333 334 332 332 332 331
295 294 293 294 292 293 292 297 300 300 296 297 300 297 298 299 299 302 304 308 306 306 306 306 306 306 306 307 307 307 308 308 310 312 313 313 313 314 314 314 313 311 311 314 314 310 311 312 311 311 311 313 314 313 313 311 313 314 313 314 315 316 317 325 328 330 330 327 329 330 332 332 332 334 333 333 334 336 336 335 335 335 334 332 330 329 329 330 331 332 332 333 332 333 334 332 331
297 296 296 294 293 294 298 299 300 299 295 294 297 300 300 299 299 301 303 305 305 305 304 305 305 306 306 306 307 307 307 308 311 312 312 313 313 313 314 313 312 311 310 311 310 309 311 311 311 310 311 313 314 311 311 310 310 311 312 313 312 314 317 324 324 329 328 328 328 328 330 331 332 331 333 333 333 335 336 336 333 330 333 330 330 330 330 331 332 332 333 334 333 329 329 331 330
293 292 293 290 295 290 297 297 300 299 295 293 297 299 299 299 300 302 304 304 303 303 304 304 305 305 306 306 306 306 307 310 311 311 313 313 312 313 313 312 315 309 311 310 309 309 310 310 310 310 311 312 312 312 311 311 311 311 310 312 313 314 315 319 321 324 328 328 327 327 328 329 330 330 333 333 333 332 334 336 331 329 331 332 332 331 330 336 334 333 333 331 333 331 329 331 331
293 291 289 288 291 294 295 297 300 302 296 293 294 295 298 299 300 301 303 303 303 305 306 306 305 305 305 305 306 306 307 308 311 311 311 311 312 312 312 311 310 309 309 310 310 310 310 310 309 310 310 311 311 315 312 310 311 312 311 312 313 313 316 319 321 323 329 326 325 325 326 327 329 329 330 333 333 333 334 334 332 331 333 334 332 330 331 331 331 331 331 331 331 332 331 331 330
291 291 288 288 293 289 285 293 298 300 298 292 295 293 295 300 301 301 304 305 305 306 307 307 307 306 305 305 306 306 307 308 308 308 309 309 311 311 310 310 310 310 309 307 308 310 311 312 309 309 310 310 311 314 317 312 315 314 313 313 314 314 315 322 320 321 326 324 323 324 324 325 328 328 328 330 333 334 335 334 333 333 333 332 330 329 329 329 329 330 330 331 331 328 329 329 331
293 293 290 290 291 292 291 291 294 294 293 296 293 293 294 297 298 299 304 307 306 306 306 306 306 307 308 308 308 308 308 308 308 308 309 309 308 308 309 312 310 308 308 307 308 310 312 308 309 309 309 310 310 314 311 313 313 311 312 312 314 314 314 314 314 316 320 323 323 321 322 324 326 327 327 328 332 332 333 334 333 333 333 331 332 328 329 329 330 331 331 330 330 329 327 328 329
289 293 293 292 292 292 292 292 291 285 284 290 292 283 286 293 298 299 301 302 302 304 304 303 305 306 307 307 307 308 309 308 308 308 308 308 308 309 309 311 307 307 308 310 308 310 309 309 309 309 309 310 310 310 311 313 311 309 309 309 309 308 309 310 311 313 316 318 318 320 321 323 325 327 327 328 331 334 332 333 332 331 332 331 331 330 330 330 330 330 331 330 330 331 330 327 326
286 290 295 294 293 292 291 290 288 281 282 289 296 284 278 288 294 297 299 300 301 302 302 303 304 305 306 306 307 309 309 308 309 308 308 307 307 307 307 306 306 307 308 310 309 309 309 309 309 310 310 310 311 310 310 314 310 310 309 308 308 307 307 310 312 315 317 318 319 318 319 322 324 327 327 328 331 334 334 334 333 332 331 332 334 331 329 330 331 331 332 331 331 331 330 326 326
287 294 295 294 293 292 291 292 289 284 289 291 292 286 280 284 287 298 299 299 299 300 301 302 304 304 305 305 307 308 308 309 310 308 307 307 307 306 306 306 307 308 308 309 308 308 308 309 308 309 311 312 310 311 309 311 310 310 309 308 312 309 308 310 312 316 319 322 318 317 318 322 324 327 328 330 331 332 335 334 335 333 331 331 334 331 330 331 332 333 333 332 332 331 330 328 327
291 293 294 295 295 293 293 290 287 289 288 284 285 292 282 282 291 299 299 297 297 298 300 301 303 304 305 305 307 308 309 310 310 308 306 305 306 306 307 307 308 308 308 308 307 307 308 309 310 309 308 309 309 311 311 309 313 311 309 309 308 310 312 313 315 317 317 317 315 316 317 321 324 327 329 331 331 332 333 334 333 333 332 331 334 331 330 332 333 332 331 330 330 330 330 331 330
294 295 296 296 295 294 293 289 288 287 284 279 284 289 279 281 289 294 297 295 295 297 299 302 303 304 305 306 306 307 308 309 309 309 307 306 307 307 307 308 308 308 309 312 307 307 308 309 311 308 308 308 309 308 308 308 308 311 308 308 308 308 310 311 314 314 315 314 313 315 317 320 324 326 327 330 330 333 333 333 332 331 332 332 334 332 330 329 331 332 331 331 330 330 331 331 330
297 296 294 292 291 290 291 289 287 282 279 279 286 290 283 278 287 291 292 293 296 297 299 301 303 304 305 305 306 307 308 308 309 308 306 306 307 308 307 306 307 307 308 307 306 307 307 306 306 306 307 308 309 308 308 307 308 308 308 308 308 308 309 310 310 312 313 312 313 314 316 319 323 325 326 328 329 330 332 333 332 331 330 332 333 330 330 329 329 331 332 331 331 330 330 331 331
295 292 289 287 285 286 283 282 284 279 276 281 288 292 290 280 284 291 295 296 299 300 299 301 302 303 304 305 306 307 308 308 310 309 306 306 306 306 306 306 306 307 307 307 305 306 307 306 305 304 305 308 308 308 308 307 307 308 308 308 308 309 308 310 310 311 312 310 312 313 315 317 319 325 325 325 327 328 328 329 332 331 331 332 330 330 330 330 330 331 331 331 330 330 330 331 330
292 289 288 282 277 278 277 278 277 279 279 286 290 292 287 284 286 291 296 298 300 302 302 303 303 303 304 305 307 307 308 308 309 308 305 305 305 304 304 305 305 304 305 305 305 305 305 305 304 304 304 306 306 307 307 306 306 307 308 308 308 311 310 310 311 311 311 310 312 313 314 314 317 322 323 322 325 327 328 327 327 328 329 330 329 329 330 331 331 332 331 330 330 329 329 330 329
290 287 284 278 275 273 272 272 275 276 282 287 288 291 282 287 290 296 297 299 301 302 303 305 304 304 305 306 306 307 307 307 308 308 305 305 304 304 304 304 304 304 305 306 306 306 305 305 305 304 304 306 308 307 307 306 306 307 308 310 310 310 309 310 309 310 311 310 313 314 314 315 316 319 322 323 324 327 327 327 328 328 330 330 330 329 330 331 331 329 329 329 329 330 329 329 329
290 293 290 284 279 277 275 275 276 274 277 283 290 286 282 283 285 298 300 301 303 303 305 305 305 306 306 306 307 307 307 306 306 306 305 304 304 304 304 303 302 304 305 305 303 303 303 303 303 305 305 306 306 306 306 306 306 307 309 312 313 313 311 309 309 313 312 310 312 313 314 316 316 317 320 324 325 325 327 326 327 326 328 327 328 329 330 330 331 330 330 329 329 328 329 329 328
291 292 290 287 285 283 281 277 280 277 279 277 282 282 286 285 296 300 301 302 303 304 304 305 304 304 305 304 305 306 306 306 306 304 304 304 304 304 304 304 303 305 305 303 303 303 302 303 303 305 305 305 307 308 306 306 306 307 308 310 311 315 315 312 311 312 310 310 311 312 314 315 316 316 318 321 322 324 324 324 324 325 328 328 329 330 330 330 330 330 329 330 328 331 329 329 329
289 289 284 289 292 289 283 280 285 282 278 277 278 285 290 293 296 298 300 300 301 302 302 303 303 303 303 304 305 305 305 304 304 304 303 303 304 304 304 303 302 304 304 303 303 304 303 304 304 304 304 305 306 308 306 305 305 305 308 311 311 310 310 310 310 310 310 311 312 312 313 315 317 317 317 319 320 321 322 321 322 324 326 326 326 327 329 330 329 329 330 331 330 331 331 329 329
288 285 289 294 294 291 284 279 279 275 275 276 281 282 284 283 281 294 298 298 299 300 300 302 302 302 302 303 303 304 304 304 304 304 304 304 304 304 303 303 302 302 303 303 305 303 303 303 304 304 304 304 305 306 306 306 305 306 307 309 311 312 312 312 312 312 312 312 312 312 313 315 316 317 318 318 318 317 318 323 319 321 325 325 325 326 327 329 329 327 328 328 330 330 331 331 330
294 293 298 288 279 281 283 280 273 275 273 274 281 284 283 283 285 292 293 295 297 298 300 300 300 301 302 301 302 302 303 303 303 303 303 303 302 302 302 302 302 303 306 304 304 304 304 303 304 304 304 304 305 306 307 305 306 308 309 309 310 312 313 314 314 315 313 311 312 312 312 313 315 317 318 316 315 315 316 318 318 319 322 323 325 326 327 328 328 326 327 328 329 328 328 329 329
298 297 292 294 286 283 280 280 281 278 274 273 278 281 278 288 286 290 294 296 298 298 298 299 301 302 302 301 301 300 301 302 303 303 302 302 302 302 302 302 302 302 303 303 303 303 303 303 305 304 305 304 304 304 307 305 305 306 310 311 311 313 314 314 313 312 312 312 312 313 313 313 314 316 315 315 314 315 315 314 317 318 318 319 323 325 326 326 327 327 326 326 326 326 326 326 328
288 286 285 286 287 290 287 284 284 280 276 273 273 273 279 284 291 292 292 293 297 299 299 300 300 302 302 302 300 300 301 302 302 302 302 302 302 301 302 302 302 303 305 303 302 302 302 302 302 303 302 303 304 305 306 305 306 306 310 311 311 311 312 313 313 312 314 315 313 315 314 315 315 314 314 314 315 315 316 315 315 318 317 317 318 321 324 325 326 327 327 327 326 327 327 325 326
290 287 287 288 283 281 278 279 285 284 280 278 275 273 277 287 298 296 294 294 297 300 301 300 300 301 301 302 300 300 300 300 301 301 301 302 302 302 302 303 303 303 302 302 302 301 301 301 302 301 301 304 304 305 306 306 307 306 309 312 312 312 312 312 312 313 315 315 315 315 315 317 315 315 314 315 315 316 316 316 315 316 316 317 317 318 322 321 323 323 324 325 325 327 329 328 328
Wind_Speed
4 1 1 1 2 0 1 1 1 3 2 3 3 1 4 1 4 1 7 4 12 6 8 17 11 3 6 13 20 15 12 6 4 2 8 3 3 5 6 5 7 6 5 5 4 4 7 10 11 10 10 10 12 10 8 7 9 11 12 13 13 13 12 13 14 15 15 14 14 14 14 14 14 14 15 15 15 14 14 14 14 15 15 16 16 15 15 15 14 14 14 15 14 15 14 14 14
1 2 3 1 0 1 1 1 2 0 2 4 8 1 3 3 3 8 7 10 10 8 4 16 18 19 22 18 13 21 15 14 11 8 5 2 5 5 5 4 4 5 3 3 2 2 5 8 13 12 10 11 12 11 10 7 8 9 10 11 12 12 11 11 12 13 14 15 14 13 13 14 14 14 14 15 15 14 13 14 14 14 14 15 15 15 15 15 14 14 14 14 14 14 13 13 13
1 4 4 4 1 1 0 2 0 1 3 2 6 2 5 14 15 12 13 14 13 9 6 14 15 11 10 7 17 13 4 5 7 7 6 3 5 4 5 4 3 3 2 3 1 2 5 7 11 11 10 11 11 11 10 8 7 7 8 9 9 11 10 9 10 12 12 13 14 13 12 12 13 14 13 14 14 14 14 14 14 13 13 14 15 15 14 14 14 13 13 12 13 13 11 12 12
2 1 1 1 0 2 1 2 4 3 1 1 5 8 6 15 17 17 14 12 9 5 2 2 7 8 8 22 12 10 7 2 3 1 3 1 1 3 3 3 3 1 1 2 3 2 5 7 11 10 10 10 8 9 8 8 7 6 7 7 8 8 9 8 8 9 10 11 12 14 14 10 10 11 13 13 13 14 13 13 13 13 14 13 14 14 13 13 13 13 12 12 11 11 10 11 11
2 2 0 1 3 1 2 2 3 4 4 4 5 5 6 13 15 16 13 9 7 4 7 7 12 4 10 9 5 3 3 2 3 2 2 2 2 1 1 3 4 4 5 5 3 4 5 11 10 11 12 11 9 9 9 6 6 5 5 7 7 7 7 7 7 7 8 8 9 10 14 14 9 9 10 12 14 15 14 13 12 13 13 13 13 13 13 12 12 12 12 11 10 9 9 10 10
4 2 1 1 0 1 2 1 1 3 4 3 4 5 3 11 16 15 13 11 8 4 4 10 10 5 8 7 4 3 3 4 1 1 2 2 1 0 2 3 4 6 5 4 5 3 3 8 10 11 12 11 9 9 6 4 5 5 5 5 7 7 7 7 7 7 6 7 7 8 8 11 13 9 9 12 14 15 14 13 12 12 12 13 12 12 12 12 12 11 11 10 9 9 9 9 9
0 3 1 1 1 1 3 1 4 2 2 6 9 13 12 13 14 15 12 13 7 11 7 13 18 14 11 2 5 3 4 3 1 0 2 2 3 0 2 4 5 5 6 7 6 7 5 8 8 9 11 11 10 8 6 4 5 5 4 4 6 6 7 7 7 6 6 6 6 7 7 7 9 10 9 11 13 14 13 13 12 12 12 12 12 11 11 11 11 11 10 9 8 8 8 9 9
0 1 1 2 1 1 1 1 4 2 4 5 14 15 7 10 11 11 6 11 2 4 4 7 7 18 5 2 6 1 4 3 3 1 1 2 3 2 1 3 5 4 6 6 7 6 8 9 9 10 11 11 10 8 5 4 3 4 3 3 5 6 6 7 6 6 5 5 6 6 6 6 6 7 8 10 13 14 13 12 12 12 11 11 11 11 10 10 10 10 9 8 7 7 8 8 8
2 1 1 4 1 1 1 2 4 1 3 12 8 13 12 11 14 16 15 13 12 10 5 7 19 17 1 6 4 1 1 3 5 2 2 2 3 3 1 3 4 4 5 6 5 5 5 10 10 9 12 12 9 8 6 3 3 3 3 2 4 5 6 6 6 6 5 5 5 5 5 4 4 5 7 9 11 13 13 12 12 12 11 11 10 11 10 10 10 9 8 7 6 6 7 7 7
1 1 1 1 2 2 2 5 2 4 9 11 13 14 14 13 13 19 16 12 12 13 8 6 13 18 13 11 4 1 0 3 5 3 2 2 3 5 3 3 3 5 5 5 4 3 4 8 8 12 13 12 10 9 7 6 6 5 5 5 4 4 5 5 6 6 5 4 4 4 4 4 3 4 5 8 10 12 13 12 12 12 11 10 10 10 10 9 9 9 8 7 6 5 6 6 6
1 1 2 2 3 1 3 5 1 4 11 10 11 15 17 17 18 15 15 13 9 14 9 20 16 12 7 5 1 0 1 3 4 1 3 4 4 4 4 6 7 6 5 6 5 5 4 3 8 8 9 10 8 7 7 6 6 6 5 6 6 5 5 5 6 5 5 4 4 4 4 4 3 3 4 6 9 11 12 12 12 11 11 10 10 9 9 9 8 8 8 7 5 4 5 5 5
1 0 1 1 1 3 4 2 4 4 6 8 9 10 9 19 20 15 17 18 9 9 3 5 5 10 11 4 1 2 4 3 3 5 6 8 7 6 6 6 8 8 9 8 7 6 7 6 4 5 7 8 7 7 7 7 6 5 5 5 5 6 5 5 5 5 5 4 3 4 5 4 5 5 4 5 8 10 11 11 12 12 10 9 9 8 8 7 7 6 7 6 5 4 4 4 4
1 1 1 1 3 2 4 1 3 10 6 4 10 6 6 14 17 18 13 13 7 10 7 6 15 6 6 4 1 2 4 4 4 5 6 5 3 2 5 7 7 8 8 8 8 8 9 9 5 3 3 6 6 7 8 8 6 5 5 5 5 5 5 5 5 5 4 3 4 4 5 6 6 7 5 4 6 8 9 10 11 11 10 9 8 7 7 7 6 6 6 6 5 4 4 3 4
2 4 4 2 1 2 3 3 5 7 3 9 6 7 4 11 11 15 16 15 8 13 8 8 4 14 8 3 2 1 1 4 4 4 3 4 2 3 7 6 7 7 7 6 7 7 9 10 8 3 3 2 2 3 6 7 7 5 5 4 3 3 4 4 3 4 3 4 4 5 6 6 8 8 7 6 6 7 8 9 10 11 10 9 7 6 6 6 6 6 6 5 5 4 4 3 4
3 2 0 2 2 2 3 3 11 9 9 10 7 9 10 10 14 13 21 18 10 5 5 4 5 5 6 9 3 2 3 5 5 4 3 1 1 3 5 5 5 5 6 7 5 6 8 5 9 2 0 0 0 2 1 1 5 6 4 3 3 3 2 1 2 3 3 4 4 4 6 7 7 8 8 7 7 6 6 7 7 8 9 8 7 5 6 6 6 6 6 6 5 4 3 3 4
4 1 0 1 5 2 7 4 5 8 6 9 9 14 18 11 8 12 4 16 8 7 3 2 4 2 9 2 8 6 7 6 6 6 5 4 4 3 4 5 5 4 4 6 5 6 6 9 5 2 2 2 1 0 0 1 1 4 6 3 3 2 2 2 2 2 3 3 4 4 6 4 5 5 8 5 7 6 6 4 6 6 6 8 7 6 6 6 6 6 6 6 5 4 3 3 5
2 1 2 2 8 4 4 2 7 8 10 9 8 13 16 11 9 13 11 11 15 5 7 4 4 6 5 7 9 10 10 8 6 7 5 4 4 3 4 4 5 5 4 5 5 1 8 8 3 3 3 2 2 2 1 0 2 2 2 4 2 2 2 2 2 3 3 3 2 4 4 2 3 3 3 3 6 3 5 5 5 5 6 8 8 7 7 6 6 7 6 6 5 3 3 4 4
2 3 2 5 4 4 3 2 7 12 13 8 11 19 22 15 12 12 14 15 12 11 12 11 12 8 9 8 10 11 8 7 5 5 4 4 4 4 5 5 5 5 4 3 2 3 4 7 7 7 6 6 5 3 1 0 0 2 1 0 1 1 1 3 0 0 3 1 3 4 2 1 2 2 3 5 2 3 4 7 6 4 4 6 7 7 7 7 7 7 6 5 4 3 4 2 3
3 1 2 4 1 3 4 4 19 14 12 12 11 16 20 16 17 7 14 12 15 15 10 12 12 9 9 9 8 8 7 5 5 5 5 5 3 5 4 4 5 5 5 5 6 7 6 7 9 9 9 7 6 6 4 5 3 2 1 1 1 2 2 2 1 1 0 2 2 2 2 2 2 3 2 3 3 5 4 7 6 5 5 5 5 7 7 7 7 6 6 5 3 2 2 2 2
3 2 0 3 4 1 9 9 14 18 19 17 16 14 19 12 13 8 17 12 13 17 13 7 11 11 7 7 6 6 6 5 5 4 5 4 2 2 4 5 5 4 4 4 5 5 7 7 7 7 7 8 7 6 5 5 5 3 3 2 2 0 1 0 2 2 2 2 2 2 3 2 2 3 6 9 8 4 4 7 9 6 6 6 6 5 6 6 6 6 5 5 3 2 2 3 3
2 5 1 2 1 3 7 11 15 17 19 17 16 12 14 11 10 13 15 16 8 7 5 14 14 13 10 7 5 5 5 3 5 4 3 3 3 3 3 4 4 3 3 4 5 6 6 6 6 7 6 7 7 7 6 6 3 3 4 3 2 2 2 2 1 2 3 3 2 2 3 1 2 3 3 3 4 4 3 2 2 2 2 1 2 2 2 3 4 3 2 4 2 1 1 2 3
3 1 2 6 1 7 4 10 14 11 14 17 16 15 12 9 12 18 18 18 9 7 9 9 11 10 10 9 8 7 6 7 7 7 7 8 9 7 6 5 4 4 5 6 5 5 6 6 6 5 6 7 6 6 6 6 8 5 3 4 3 2 3 3 3 2 1 1 3 2 1 0 3 4 4 3 4 5 4 4 3 5 2 3 1 2 2 3 3 3 3 3 2 1 1 1 2
1 1 1 2 6 7 1 7 11 14 13 15 12 12 12 10 10 6 14 17 9 9 12 12 11 10 9 9 10 10 9 8 8 8 9 9 8 7 5 4 5 6 5 4 4 4 6 7 8 7 7 7 8 6 6 6 6 6 3 3 2 4 2 2 1 2 3 1 3 2 2 4 2 0 3 4 4 4 4 4 4 4 4 3 2 2 2 2 3 4 3 2 2 2 2 2 2
7 3 2 5 6 7 5 9 15 17 16 16 14 13 15 15 14 5 13 11 15 14 14 13 12 12 11 11 9 10 9 10 8 8 8 7 7 6 5 5 3 3 4 4 5 4 6 7 7 8 7 7 6 7 6 6 5 6 5 4 2 4 0 0 1 1 1 1 2 2 1 2 3 4 5 4 5 4 5 4 3 3 4 4 3 3 3 3 4 3 3 2 2 2 3 2 2
7 4 2 4 5 4 9 10 15 17 17 17 16 16 15 15 15 11 14 15 15 15 14 14 13 12 11 12 11 9 10 9 9 8 7 6 6 6 6 5 4 4 5 5 4 5 4 4 6 8 8 8 7 6 7 6 6 6 6 6 5 2 0 2 2 2 0 1 2 1 1 1 2 1 3 1 1 5 5 4 4 4 4 4 4 4 3 3 3 3 4 4 3 3 3 2 2
2 3 4 3 3 5 7 9 11 16 11 16 16 14 11 15 18 15 15 14 14 15 14 14 14 13 12 10 11 10 8 8 7 8 6 5 6 8 5 4 4 5 4 4 6 5 4 4 5 6 7 7 7 6 6 7 6 7 7 6 6 2 1 2 2 2 3 1 2 2 2 0 3 1 3 2 2 4 5 4 4 4 5 4 5 5 4 3 4 3 3 3 4 5 4 4 3
3 7 6 6 3 5 4 6 5 10 13 18 19 16 16 16 14 5 6 14 15 16 15 13 13 13 12 11 10 9 11 8 7 5 7 5 5 5 4 5 5 4 5 5 5 5 5 5 5 5 6 5 6 6 6 6 6 7 7 6 6 4 1 1 1 0 2 3 2 2 1 0 1 3 6 5 3 1 3 3 5 4 5 4 5 5 3 4 3 3 4 4 2 4 7 6 4
4 3 6 7 5 5 5 6 6 10 5 18 20 17 12 3 12 16 14 12 16 17 15 14 12 12 12 12 11 9 9 7 7 9 8 6 4 3 4 3 4 4 5 5 4 4 6 6 5 5 5 6 6 6 6 7 7 6 6 6 6 6 2 0 1 0 0 1 0 1 1 1 3 6 4 3 4 1 2 3 1 3 5 4 4 4 3 3 3 3 4 3 3 6 7 4 2
4 7 4 3 6 2 4 5 2 8 9 16 17 12 5 3 14 19 17 16 16 17 16 14 13 12 11 11 11 9 8 7 7 8 6 5 4 3 4 2 4 4 3 3 3 4 5 5 5 5 5 6 6 6 6 5 6 6 7 6 6 7 5 4 2 2 3 2 2 1 2 2 0 1 3 2 4 5 5 5 4 2 2 1 2 3 4 4 5 5 4 4 5 6 7 6 4
4 4 3 4 5 3 2 2 2 9 8 14 9 5 1 4 16 17 17 17 16 16 14 13 11 11 9 8 9 10 9 8 8 6 5 5 5 4 4 3 3 4 4 3 4 4 3 3 4 4 5 6 6 5 6 6 7 6 6 6 6 6 6 6 5 3 2 4 3 3 3 2 1 4 4 2 1 5 5 5 5 4 4 1 1 3 5 5 5 5 4 5 5 5 5 5 3
2 0 6 1 3 2 2 1 5 7 2 4 11 8 5 8 15 16 15 18 19 17 15 13 12 11 9 9 9 9 8 8 8 6 6 5 4 3 4 3 4 4 3 4 3 2 4 3 3 5 5 6 5 6 6 6 6 6 7 7 6 5 5 5 6 5 4 3 2 2 3 3 3 3 3 2 2 2 3 3 4 5 2 2 2 2 5 4 5 6 5 6 5 5 4 3 5
3 4 5 5 3 3 3 3 4 8 2 8 15 8 7 12 14 17 16 16 17 18 15 14 13 11 10 9 10 9 9 8 9 8 7 5 4 4 4 3 2 3 4 3 2 3 4 4 4 5 5 6 5 5 5 6 6 6 6 6 7 6 5 5 5 5 5 5 3 3 2 2 3 3 1 1 4 4 4 4 4 3 4 4 2 2 3 5 5 4 4 6 6 4 5 3 4
5 7 2 2 2 1 1 0 0 6 7 1 12 5 1 7 15 17 18 19 17 16 15 14 14 14 11 10 9 9 10 8 8 7 6 5 4 4 3 3 2 2 3 4 3 3 3 4 4 5 5 5 4 5 7 6 7 7 6 6 6 6 5 5 5 5 5 5 5 4 3 2 2 3 3 4 4 5 3 4 4 3 2 4 4 3 4 5 6 6 4 3 3 5 6 6 3
3 2 3 2 3 0 1 7 1 3 6 3 8 10 5 6 17 11 17 19 18 17 16 15 14 12 10 9 9 10 10 9 9 8 6 5 4 4 3 3 2 3 1 1 2 3 2 3 3 4 5 4 4 4 5 6 7 7 6 6 5 6 6 5 4 4 6 5 5 4 4 3 3 3 4 3 3 4 4 5 3 3 3 3 4 4 4 4 5 7 6 4 3 3 5 7 6
1 2 2 1 2 1 1 0 3 4 5 10 1 11 6 6 6 7 15 16 17 17 16 15 14 12 11 10 10 10 10 9 9 7 7 5 4 3 3 3 4 4 3 3 4 4 4 4 3 4 5 4 5 5 5 5 6 7 6 6 6 6 6 5 3 4 5 5 5 5 3 4 3 3 3 4 4 6 7 5 4 4 4 5 4 3 4 4 5 5 7 5 5 3 3 4 6
3 1 3 3 2 1 1 4 3 4 5 7 8 8 4 6 4 4 9 16 16 14 13 12 12 11 10 9 9 8 8 8 6 6 6 5 4 4 3 2 3 3 3 4 4 4 4 3 4 5 5 4 4 5 5 6 6 6 7 8 9 8 7 5 5 3 4 5 6 5 5 4 3 3 2 1 2 3 4 5 5 4 3 4 5 4 4 5 6 7 7 8 7 4 3 3 4
1 2 3 2 3 2 3 1 3 3 3 2 6 8 9 8 4 4 10 13 13 14 13 12 11 12 10 9 8 8 8 8 6 7 6 6 5 4 4 3 3 3 3 3 4 4 3 3 4 5 4 4 4 5 5 5 5 6 6 6 6 7 6 5 5 4 5 4 5 5 5 5 3 3 3 2 3 4 4 5 4 4 0 2 4 6 6 5 5 6 8 6 9 7 1 2 2
4 3 3 1 0 4 4 3 3 1 3 0 6 9 9 7 4 6 11 15 14 16 14 14 13 11 10 10 10 10 8 7 8 6 6 5 4 5 5 4 4 4 1 2 3 2 3 4 5 4 4 5 5 4 4 5 3 2 3 4 4 6 6 6 6 5 4 4 4 5 6 5 5 4 4 3 3 4 4 5 5 7 7 7 7 5 4 5 5 6 8 5 4 7 4 4 5
8 3 3 4 6 1 2 4 3 0 4 3 5 8 6 6 5 4 9 11 10 13 17 15 16 13 11 11 12 11 10 10 9 10 8 7 6 5 5 4 3 4 2 2 1 3 4 4 4 4 4 4 4 4 4 3 3 4 3 4 5 5 4 4 5 6 4 5 5 5 5 6 5 5 4 3 3 4 5 5 5 6 7 6 6 5 5 6 7 8 8 8 6 2 3 4 6
6 7 7 3 3 5 3 6 2 3 1 2 1 10 5 5 4 5 3 10 5 4 9 10 14 17 15 14 13 12 11 11 11 10 9 8 6 6 6 4 3 2 2 3 4 3 3 4 4 4 4 4 4 4 3 4 4 4 4 4 5 3 4 5 4 5 5 6 6 5 3 5 6 5 4 4 4 5 5 5 6 6 7 3 3 6 6 7 6 7 6 8 10 8 4 5 5
4 6 3 2 3 1 3 2 5 4 2 4 10 8 4 3 7 3 6 5 10 4 7 6 4 8 9 8 8 11 13 12 11 9 8 7 6 8 8 5 3 3 3 3 3 3 4 4 3 4 3 3 3 4 4 4 5 6 6 7 5 7 6 6 7 8 6 6 6 8 9 7 6 5 5 4 5 6 5 5 6 7 6 7 6 4 6 8 8 8 9 8 9 9 7 4 5
3 2 3 2 1 4 3 4 7 8 3 2 7 2 2 3 2 6 3 3 6 1 7 5 6 5 7 10 9 6 8 7 10 10 10 8 8 7 6 7 4 3 4 2 3 4 5 4 3 3 3 3 3 4 4 4 4 4 6 7 7 6 6 7 8 7 7 7 7 6 7 6 6 6 6 6 5 5 5 6 6 6 5 8 9 10 7 6 6 7 8 9 7 7 10 8 6
5 3 1 3 3 3 3 3 6 2 1 3 1 5 2 2 2 2 1 3 4 2 2 6 6 7 7 7 6 6 7 5 4 6 7 7 7 8 5 5 5 4 3 3 3 5 5 4 4 3 3 1 2 3 4 4 5 5 4 3 3 3 4 5 5 5 5 5 5 6 6 6 6 5 5 5 5 5 5 6 7 8 8 7 8 7 7 8 8 8 6 7 8 7 8 9 10
1 3 1 3 3 3 3 1 2 2 3 3 4 4 5 3 2 1 2 4 4 4 4 5 5 5 5 4 4 4 5 5 6 8 6 7 8 9 7 6 5 5 4 4 4 5 5 4 4 3 2 1 1 2 4 3 4 4 5 5 4 4 4 5 7 7 7 6 7 7 6 6 6 6 6 6 4 4 4 5 7 8 8 8 7 7 8 7 7 6 8 8 7 8 9 9 10
3 2 4 2 1 2 2 2 1 0 1 6 7 1 6 0 2 2 3 6 4 6 6 6 5 5 4 4 4 4 4 5 6 7 6 7 8 7 7 5 4 4 4 4 4 5 4 4 3 2 2 1 1 2 3 4 4 4 4 4 5 5 4 5 6 5 5 5 6 7 7 6 7 8 8 7 2 3 3 2 4 7 9 8 8 7 6 8 9 9 8 7 7 7 7 7 8
2 2 1 0 2 1 1 1 4 2 2 4 4 1 4 1 1 3 1 0 4 7 6 7 8 7 6 6 5 4 3 3 4 6 7 7 8 7 6 5 4 4 4 4 4 5 4 4 3 3 1 1 0 2 3 4 4 4 5 5 4 6 6 6 5 6 6 6 7 8 7 7 7 7 8 7 7 1 2 2 2 4 6 9 7 4 2 3 4 8 9 10 9 9 7 7 9
2 6 4 5 4 2 1 2 2 3 0 2 5 2 7 1 4 7 6 6 8 5 1 3 3 4 4 5 6 6 5 4 5 6 7 6 6 7 5 5 5 4 4 4 4 5 4 4 3 3 3 1 1 3 3 3 3 4 3 4 4 4 5 5 7 8 7 8 8 8 8 8 7 6 6 6 5 6 3 1 1 3 3 2 5 6 6 5 5 5 6 7 9 9 8 7 6
7 3 2 6 5 8 4 3 4 2 2 5 3 3 2 5 3 6 7 4 5 10 9 8 6 7 6 6 5 5 5 4 5 6 6 5 5 4 4 5 4 4 4 3 4 4 4 3 3 2 2 2 2 2 3 3 3 3 3 3 3 3 3 4 5 6 6 7 7 7 7 7 7 5 5 6 7 6 4 4 3 2 1 1 3 5 6 7 8 6 5 7 7 8 7 7 6
8 3 8 6 3 5 2 6 2 1 3 2 1 3 5 2 2 6 4 3 3 6 8 11 10 7 6 6 6 5 5 5 5 6 6 5 6 5 5 4 3 4 5 4 4 5 4 3 2 3 3 2 2 2 2 2 3 3 2 2 3 3 3 3 4 5 4 5 6 7 7 7 7 6 5 6 6 6 5 4 4 2 1 3 4 7 8 8 8 6 7 8 7 9 9 9 8
7 5 2 3 1 2 0 2 1 4 6 6 0 1 2 2 2 1 5 3 4 7 5 7 11 10 9 8 6 6 6 6 5 4 5 5 5 5 5 4 4 4 5 4 4 4 4 3 1 4 3 2 2 3 2 2 3 3 3 2 3 3 3 3 4 4 5 4 5 6 6 6 7 7 6 5 5 5 4 3 2 1 1 2 3 5 6 6 4 0 1 4 7 8 7 8 8
0 1 0 3 4 0 1 1 0 2 6 7 4 2 2 3 3 1 2 3 3 2 4 6 8 9 8 6 6 5 5 4 3 3 5 6 6 6 5 4 4 5 5 4 4 4 3 3 3 5 4 2 2 2 1 1 2 3 3 3 3 3 3 3 3 4 5 5 6 6 6 5 5 6 6 4 5 5 3 3 2 3 1 3 4 2 3 3 5 8 8 8 6 5 7 7 6
1 2 6 5 3 6 1 4 2 2 1 4 4 0 1 2 1 2 1 4 4 3 5 7 5 4 5 4 6 7 6 4 4 5 6 6 6 6 5 4 4 5 5 4 4 4 4 4 4 5 5 3 2 1 0 0 2 3 3 3 4 4 3 3 4 4 4 3 5 5 6 6 5 4 6 4 4 3 4 3 3 3 2 3 2 2 2 2 4 7 7 5 6 5 6 7 6
5 5 2 4 6 5 0 1 0 1 3 0 1 2 3 1 5 2 1 4 2 3 4 5 6 6 6 7 7 5 4 5 5 7 8 7 5 5 5 4 4 4 4 5 5 5 4 4 4 4 3 2 2 1 1 1 2 2 3 3 3 4 4 4 4 4 4 4 4 5 5 7 6 4 5 4 4 3 2 2 3 3 2 3 3 3 3 2 2 5 4 6 8 5 4 5 3
3 4 5 3 2 5 3 1 4 3 1 1 2 3 1 1 1 1 2 2 1 2 3 4 5 5 7 7 6 5 6 7 8 8 7 7 7 7 5 4 4 3 6 5 5 3 4 4 5 5 4 3 1 1 1 1 2 2 3 3 4 3 3 4 4 4 4 4 5 5 5 6 6 5 4 4 5 5 4 3 2 2 2 2 3 4 4 2 1 2 3 2 2 2 1 0 2
4 1 2 4 1 2 4 2 2 3 2 1 1 1 1 3 2 3 3 3 5 4 3 3 5 6 7 6 6 6 6 6 7 8 6 6 5 5 5 4 5 2 6 6 5 5 4 4 4 5 5 3 3 2 1 2 2 2 2 3 3 3 4 4 4 4 4 3 4 5 5 5 6 7 6 6 6 6 4 3 2 2 2 2 1 3 2 3 2 2 1 1 0 1 2 1 0
2 2 5 1 5 2 1 0 2 4 2 2 3 3 1 1 2 6 9 8 7 5 4 7 9 9 8 5 5 6 6 8 7 6 6 6 6 5 6 5 5 6 6 5 6 5 5 4 4 3 2 3 2 3 1 1 2 2 3 3 3 3 4 3 4 4 4 4 4 4 4 5 6 5 5 5 4 5 5 3 3 2 2 2 2 1 2 3 1 2 2 3 2 1 1 2 2
6 7 4 5 1 1 2 1 1 1 2 1 1 1 2 6 4 3 5 6 8 9 10 9 9 9 7 7 6 6 6 7 7 7 7 6 6 5 5 7 3 5 5 5 6 6 5 3 3 3 4 3 2 2 1 0 1 1 1 3 4 4 4 4 4 4 4 4 4 4 4 4 4 5 4 4 4 4 5 4 3 3 3 2 2 2 3 2 2 1 2 2 5 5 5 5 5
2 2 1 2 2 4 2 3 3 2 2 0 0 3 5 8 2 5 6 6 10 11 11 10 8 9 7 7 6 8 7 5 6 7 6 6 6 6 6 1 3 6 5 5 4 4 4 4 3 3 2 3 3 2 1 0 0 2 1 2 3 3 3 4 5 5 5 5 5 4 4 4 3 4 3 4 4 4 4 5 4 4 4 4 3 1 2 2 3 3 2 1 2 2 5 6 5
Wind_Direction
245 269 262 153 99 65 68 19 91 302 65 266 269 180 246 82 186 231 136 165 69 334 3 63 51 48 104 100 103 89 50 101 336 144 106 162 169 214 260 280 303 293 319 325 336 5 28 27 32 43 53 62 79 88 82 84 89 97 99 105 107 110 113 117 120 124 123 121 118 118 117 115 113 114 115 115 115 117 116 112 111 112 113 112 111 111 109 108 108 111 110 108 106 106 104 104 102
291 2 13 107 168 89 294 127 102 337 41 357 263 116 334 50 93 100 86 82 106 144 110 89 85 84 94 110 117 91 37 35 49 73 83 121 161 213 238 277 301 327 309 296 301 2 36 44 34 34 50 68 65 58 53 58 77 90 96 105 109 110 115 117 121 124 124 124 121 121 120 121 119 118 119 120 121 119 116 115 114 113 113 111 109 111 112 112 110 109 112 110 108 107 107 105 103
1 32 9 41 21 103 242 53 213 151 137 229 300 162 96 78 86 83 95 100 114 132 146 89 74 57 101 112 47 63 101 359 57 80 94 119 157 300 331 332 356 327 284 269 290 51 50 42 44 40 42 46 57 64 47 42 67 91 98 100 103 108 111 112 118 122 123 123 124 121 119 120 124 125 125 126 125 120 115 114 115 113 111 113 114 113 113 112 111 110 110 111 108 109 105 103 101
86 59 114 77 68 18 66 29 93 118 82 202 0 48 99 112 110 109 109 128 137 184 214 305 52 340 91 70 103 67 76 93 20 78 109 92 124 244 303 360 343 330 323 323 341 46 71 54 49 44 46 50 50 68 65 38 53 81 102 101 98 102 104 106 109 116 119 125 126 126 123 119 123 127 130 128 119 114 113 114 114 116 117 114 113 112 113 113 112 113 112 111 111 109 105 101 99
70 23 106 79 108 355 102 190 148 123 204 154 112 331 76 101 106 110 120 144 148 162 147 136 88 7 51 82 17 50 121 176 66 34 128 184 212 234 350 30 16 14 8 353 5 7 43 66 52 46 40 40 38 46 68 63 58 77 86 106 100 94 99 100 101 104 112 114 119 124 128 128 126 132 130 121 117 116 114 114 117 118 116 116 116 117 115 115 114 113 113 111 110 106 103 99 96
58 51 351 83 107 192 48 351 278 227 209 129 108 109 66 99 100 103 95 75 51 41 102 75 111 147 58 37 12 94 290 122 212 86 131 211 216 246 82 58 44 32 16 7 4 5 35 66 56 50 44 33 37 41 51 50 64 81 109 121 106 99 101 100 101 98 101 105 112 115 117 126 133 130 128 124 121 117 117 119 120 120 121 120 117 115 115 115 114 113 112 113 111 107 103 98 94
125 55 4 26 337 60 145 161 249 218 325 155 140 132 122 117 116 113 121 107 73 75 43 111 124 125 80 97 76 40 11 356 117 317 14 322 315 319 91 69 59 38 23 17 7 353 357 51 65 54 53 36 27 33 37 23 56 93 115 124 118 109 105 106 103 103 100 104 106 110 114 120 128 135 135 128 121 118 119 122 125 126 124 123 121 117 116 115 114 111 111 111 110 109 102 97 93
132 111 210 93 284 58 317 228 268 136 305 69 136 121 159 144 136 115 130 102 121 108 72 148 161 88 78 330 129 257 5 13 15 289 348 341 330 307 79 90 78 53 45 29 12 360 6 18 31 56 51 43 29 29 31 31 36 81 87 123 119 117 108 105 109 107 106 101 104 111 120 124 130 134 132 129 121 121 123 126 128 128 128 124 122 119 118 114 110 107 104 105 106 104 103 95 92
348 80 324 67 10 344 7 300 276 220 92 86 85 119 134 133 126 114 97 100 104 88 125 161 107 88 216 82 61 324 31 342 355 20 39 347 310 295 269 102 82 79 76 65 37 347 357 25 17 38 52 46 42 33 26 40 49 60 65 83 114 112 104 107 112 112 108 103 110 110 113 106 116 130 137 126 121 123 125 129 129 125 123 125 126 123 118 114 111 109 109 106 104 99 96 93 87
17 92 317 138 129 334 350 293 334 312 122 122 133 138 136 128 105 101 108 87 106 100 64 40 90 112 143 100 101 330 327 356 342 27 26 357 356 342 351 20 87 101 71 73 64 25 360 26 29 36 48 52 54 46 40 36 39 37 39 50 53 51 87 90 97 102 95 94 94 102 107 118 125 136 131 129 128 128 130 131 127 127 129 133 131 123 121 120 119 117 115 110 106 99 93 87 80
26 9 173 57 29 342 276 274 26 59 118 127 137 144 135 117 109 103 102 110 107 98 96 89 69 108 107 68 10 351 11 8 352 10 26 14 23 3 358 13 2 9 51 40 36 17 17 351 35 51 62 65 76 79 68 56 49 45 42 39 43 57 61 82 93 92 96 106 118 122 133 136 130 124 122 135 137 135 133 133 131 133 136 136 131 127 126 125 124 124 120 116 113 108 93 82 73
27 116 32 108 224 204 243 260 65 66 120 141 127 139 136 114 107 103 108 104 105 104 113 301 139 133 73 104 45 338 354 8 9 29 17 24 36 16 29 28 21 21 22 15 18 21 358 347 356 44 63 80 81 88 93 86 76 61 54 48 52 52 61 66 80 89 105 111 131 146 150 145 132 122 124 141 144 138 135 133 133 135 136 135 130 129 131 128 129 129 125 121 124 116 97 76 70
123 102 78 95 235 164 233 203 140 157 218 138 132 133 127 107 107 113 102 103 96 88 29 96 145 117 104 86 335 354 13 43 50 34 36 47 49 24 47 42 43 42 29 21 30 16 4 338 335 350 61 89 95 87 82 80 77 68 55 52 50 56 61 69 88 94 108 124 147 144 142 140 130 126 129 144 147 140 138 137 137 134 133 132 132 132 132 131 129 131 126 125 133 123 103 80 60
133 180 123 263 172 237 233 231 90 140 105 126 113 123 102 105 106 110 104 89 80 99 124 128 82 101 77 84 354 2 5 78 72 52 68 70 45 42 60 53 49 44 36 33 34 36 33 338 308 328 12 21 33 55 74 78 78 77 67 56 62 60 61 70 96 121 130 150 150 152 146 141 143 138 139 144 148 146 142 141 136 136 136 135 135 134 132 132 131 131 134 135 136 127 108 84 59
191 217 104 187 295 14 221 192 148 156 134 133 130 111 97 71 107 111 110 102 86 86 96 87 129 75 190 151 177 198 163 134 112 129 112 160 126 95 105 97 81 76 70 63 43 41 47 320 277 350 7 47 54 75 24 58 99 95 97 96 92 96 95 106 121 145 155 135 150 149 154 146 148 144 143 146 147 148 146 138 134 130 128 127 121 125 131 131 133 137 140 139 135 128 109 72 55
182 76 156 5 302 54 309 48 84 129 113 114 121 109 79 59 52 84 52 116 121 116 108 200 11 117 136 86 144 134 128 127 149 151 163 196 176 154 108 96 88 73 64 66 64 58 64 250 259 10 39 79 112 278 27 345 349 115 114 110 121 115 137 150 162 178 164 169 172 173 159 150 145 148 147 149 146 153 157 143 141 133 136 136 133 135 137 130 131 136 137 136 131 123 98 70 53
146 119 330 18 304 40 283 117 138 112 113 113 144 100 97 80 73 68 78 81 109 92 73 43 83 81 108 117 114 114 129 146 170 167 156 104 105 81 63 48 42 35 26 34 28 17 215 241 349 3 10 41 74 127 162 203 284 50 34 128 120 128 143 150 193 196 188 192 196 140 174 132 126 143 135 134 160 145 166 158 163 158 163 142 140 146 130 130 133 133 136 134 129 127 102 70 53
111 159 169 287 223 328 229 170 130 126 118 137 123 111 109 107 96 98 84 78 85 85 79 76 60 56 82 93 101 117 138 153 147 117 99 104 87 81 61 44 53 61 51 66 76 34 15 16 11 6 4 0 7 16 2 223 155 95 77 323 123 72 130 143 175 217 212 152 197 159 181 159 137 124 148 156 133 163 170 173 179 150 152 144 147 135 133 137 132 134 138 134 136 132 96 54 23
156 214 82 236 245 261 301 83 114 121 126 126 117 110 107 116 114 134 99 98 98 83 74 92 91 71 72 84 105 118 118 116 103 108 117 103 74 100 83 70 67 52 44 38 36 28 23 20 16 10 13 356 354 354 337 335 357 20 85 160 206 208 219 168 162 216 131 202 182 163 179 189 152 161 151 160 148 176 188 181 193 173 173 169 149 137 139 137 137 139 143 138 135 122 58 45 39
226 108 320 269 221 350 45 70 121 123 127 119 113 105 107 122 111 133 108 110 104 117 124 99 113 123 115 110 115 121 123 125 108 117 104 127 115 112 100 97 75 60 56 43 36 27 27 24 17 15 12 4 5 354 342 321 321 335 340 68 92 102 337 16 193 186 199 223 199 190 201 202 180 177 191 184 184 172 192 187 204 194 180 167 159 136 140 140 135 143 141 135 111 48 28 33 55
253 87 166 240 280 56 1 77 115 125 124 123 116 116 107 125 129 117 122 98 94 110 125 141 144 140 137 134 129 126 120 117 117 126 118 112 85 81 89 79 89 70 42 33 37 30 25 26 17 14 8 11 7 358 353 337 284 336 330 352 69 66 84 55 360 272 221 210 212 212 219 230 203 200 213 202 152 167 180 173 170 98 285 314 175 93 113 122 109 113 103 103 113 121 28 34 59
93 148 219 173 115 62 31 81 111 119 116 116 119 119 115 118 113 125 133 126 150 151 131 119 123 125 129 129 125 107 101 101 98 103 107 99 92 89 80 69 61 58 45 48 30 27 23 24 25 12 15 11 12 5 352 345 356 350 325 321 342 51 54 33 22 359 303 215 184 204 239 105 249 223 197 201 170 164 178 176 175 164 162 206 213 140 134 116 127 123 127 133 163 152 170 114 78
123 315 50 344 115 116 76 75 101 117 118 113 116 119 120 116 105 108 119 124 132 119 114 110 107 108 108 107 109 106 105 100 98 92 90 87 84 78 71 63 61 54 44 44 36 27 21 20 16 14 16 7 8 360 360 2 2 342 326 275 302 308 67 64 15 23 341 225 204 197 169 187 192 328 256 172 176 166 180 183 184 169 168 194 219 180 172 153 149 147 141 169 175 177 189 143 135
111 155 129 56 75 76 61 83 96 105 105 114 123 134 119 126 105 124 101 108 116 115 112 108 104 104 101 95 92 97 96 95 88 83 78 81 83 77 82 73 55 45 50 30 29 28 23 21 12 13 7 11 360 358 3 5 354 351 346 351 301 267 255 196 236 18 324 289 256 246 247 176 143 156 192 167 176 166 179 188 180 184 181 190 203 203 181 161 163 154 160 182 202 201 191 176 162
118 141 151 133 84 107 90 86 98 103 107 116 122 124 134 126 120 119 112 120 120 118 115 111 110 102 95 93 92 90 88 83 81 75 67 65 73 72 55 55 48 46 51 32 25 34 17 19 21 13 5 3 358 352 5 352 353 349 354 347 337 298 74 265 279 257 300 287 273 277 301 163 165 184 114 93 225 174 178 177 183 197 200 197 187 213 194 170 170 165 176 193 194 204 196 157 147
85 77 101 99 97 92 87 78 96 110 118 121 115 114 116 107 106 104 128 124 123 120 115 117 112 107 101 97 96 91 84 79 78 68 68 55 58 63 42 47 45 49 43 38 34 27 21 16 24 17 8 359 350 355 356 357 350 350 345 343 319 14 238 224 250 230 258 189 243 259 280 38 150 204 215 180 169 191 171 171 190 207 207 201 189 201 206 175 177 176 172 194 206 199 109 40 355
134 117 113 115 148 88 66 113 123 115 130 125 117 126 130 136 122 108 129 129 126 120 121 121 118 116 114 111 101 94 91 88 96 107 74 65 54 69 55 41 44 38 39 36 34 29 19 22 14 11 8 1 359 2 350 352 349 350 341 331 332 325 287 241 236 281 264 272 236 215 241 48 112 222 198 201 169 172 136 152 192 206 225 216 196 205 195 183 171 165 173 181 196 140 119 154 205
66 117 84 85 75 87 112 83 104 108 117 124 124 127 138 180 115 146 149 143 133 128 128 129 127 125 125 119 108 102 100 110 105 89 90 81 84 89 68 67 44 37 42 29 28 21 19 14 14 2 8 6 8 2 357 356 353 344 341 345 340 316 289 181 260 347 249 245 268 287 279 235 181 215 207 196 144 122 239 132 168 207 212 233 211 199 177 162 150 103 122 129 110 111 125 125 199
146 91 62 352 74 45 86 130 194 106 129 122 118 109 106 146 132 145 147 143 137 133 135 135 133 130 126 123 116 110 111 105 98 92 105 123 127 119 99 95 80 57 33 50 28 26 17 8 10 354 4 10 16 7 3 356 354 350 350 347 345 351 325 318 293 239 262 253 254 266 282 259 181 331 285 229 147 167 216 190 196 197 239 287 213 169 138 131 108 102 84 94 97 102 107 122 184
48 44 127 26 21 24 286 90 76 98 154 156 116 68 291 131 138 143 146 142 139 134 138 141 136 133 130 126 120 119 115 107 98 108 113 106 100 98 94 71 81 84 58 33 38 22 11 6 8 352 359 9 11 11 10 8 0 352 351 344 343 350 354 350 325 292 260 259 248 253 256 273 141 214 229 240 148 160 188 196 192 203 224 310 121 140 136 134 117 110 113 96 104 109 116 133 131
83 319 58 100 75 164 269 162 147 96 207 167 102 121 133 144 147 146 149 149 146 143 146 145 139 136 136 134 127 121 120 118 121 115 99 95 103 98 95 75 79 76 65 50 53 21 15 5 15 7 358 2 3 8 9 5 1 358 352 346 342 339 346 353 348 339 307 289 286 264 273 262 230 224 214 166 252 189 186 206 204 210 152 350 310 160 129 131 126 128 131 104 93 94 106 117 120
12 49 325 333 97 276 326 28 100 128 22 100 89 110 179 159 158 155 156 155 148 144 148 147 142 142 145 141 134 131 129 128 126 122 127 130 126 116 101 93 84 84 89 74 49 32 21 356 21 20 11 9 358 2 2 1 357 354 350 348 344 336 337 348 349 344 335 313 306 299 268 271 266 263 134 202 235 206 188 204 224 222 145 162 236 151 126 134 133 124 99 122 112 109 112 85 98
3 93 17 338 32 234 23 75 151 150 134 349 125 169 135 168 166 164 163 156 152 144 149 149 145 147 148 145 140 139 132 131 126 130 137 141 149 138 132 111 107 118 88 62 44 32 21 359 11 23 21 13 2 3 1 357 356 352 348 345 339 336 334 339 347 349 355 345 325 309 303 274 268 272 261 202 205 230 213 214 217 210 176 157 149 137 134 155 138 113 86 77 107 142 130 124 96
331 8 108 256 126 34 9 291 252 156 104 49 119 130 205 171 168 182 168 157 152 150 151 150 149 150 149 148 145 141 139 140 138 142 150 145 151 149 153 129 93 67 59 47 33 42 26 3 5 20 22 16 8 8 4 356 348 343 345 341 337 340 336 324 343 6 4 351 333 315 303 286 268 254 251 240 223 221 217 218 215 191 186 165 139 133 142 145 125 123 108 81 83 122 135 133 140
349 2 42 342 319 127 155 208 278 57 50 111 119 138 192 190 177 140 155 162 152 152 150 150 149 150 152 148 147 145 145 141 148 151 151 147 145 155 132 101 67 52 56 44 30 21 27 8 8 17 24 18 6 3 360 359 350 347 338 349 345 343 342 327 345 11 4 358 349 326 305 294 286 270 248 249 218 198 216 213 204 196 181 173 159 137 133 130 128 121 122 111 84 72 99 119 138
128 166 191 167 170 284 174 252 296 103 83 115 142 157 181 175 163 134 118 148 145 142 137 141 144 146 146 149 147 147 143 139 146 143 142 141 148 145 131 105 73 61 42 37 28 22 16 12 8 24 21 18 20 11 2 1 1 354 349 345 352 350 337 333 351 348 1 5 352 345 327 310 290 274 265 253 266 230 223 222 213 188 180 162 171 162 152 145 148 129 119 121 111 83 61 102 128
107 32 326 356 275 260 283 20 310 136 88 138 171 151 167 182 148 89 126 133 122 133 141 146 151 151 153 150 148 145 142 148 149 144 143 147 151 147 136 121 90 58 38 43 39 18 19 8 33 30 10 21 30 20 6 8 4 351 350 352 337 326 325 326 341 333 3 353 350 343 336 327 318 303 277 249 240 256 245 234 196 106 92 261 218 197 175 161 151 140 132 142 129 117 137 120 113
86 121 173 288 132 220 225 209 230 342 111 27 134 145 180 159 127 129 125 129 139 147 150 154 154 152 151 148 146 151 153 141 145 141 147 149 151 142 126 124 109 81 25 37 45 25 10 9 41 44 30 27 19 20 15 7 354 360 322 317 319 314 327 340 333 330 348 346 351 345 339 328 322 323 312 280 238 228 238 227 171 173 197 195 201 205 169 152 142 136 134 118 117 148 148 163 169
31 74 120 53 345 277 324 1 75 121 89 227 145 139 184 154 130 105 128 133 151 159 155 157 149 150 152 154 155 156 154 156 152 156 152 157 158 132 122 127 125 130 143 83 2 46 19 20 37 49 36 35 14 7 22 359 324 349 2 322 327 308 300 321 320 317 322 334 350 344 336 330 318 316 312 285 248 227 227 215 189 185 200 202 179 179 168 159 161 154 154 140 129 114 125 169 180
49 36 48 61 300 68 337 311 15 311 138 217 215 87 74 65 81 99 116 134 134 125 137 145 151 151 159 164 160 155 154 151 164 168 159 160 150 133 124 128 157 164 111 55 39 59 46 42 52 51 36 31 13 358 12 350 339 345 349 339 326 304 283 319 321 309 316 339 345 330 329 341 326 309 307 296 258 238 222 206 195 186 204 189 207 176 171 170 170 163 155 149 138 136 150 188 198
28 74 88 52 13 18 123 321 327 321 337 90 74 73 68 122 121 98 31 38 98 100 110 106 116 139 148 147 151 159 159 164 167 158 155 159 140 141 140 137 169 147 111 91 83 80 83 86 90 73 57 34 8 355 353 354 360 357 349 349 354 0 355 352 351 351 347 341 344 354 340 335 327 307 295 284 260 236 223 207 189 194 179 171 207 219 183 176 180 174 168 154 157 148 152 161 196
356 45 109 142 161 26 21 24 36 17 349 308 132 81 221 259 154 113 109 69 82 50 121 129 151 146 152 158 164 172 167 166 158 156 161 164 142 134 132 141 167 137 123 138 128 97 97 107 99 81 59 27 5 354 349 2 9 8 2 6 2 1 349 347 349 330 329 342 340 317 317 322 321 320 305 297 274 239 218 203 191 185 188 186 190 195 194 171 171 178 182 165 165 169 151 158 174
61 296 274 59 62 70 26 33 66 19 54 286 37 148 234 348 51 9 50 79 74 59 120 162 174 173 174 171 175 173 168 165 149 145 153 140 138 133 148 149 146 129 143 146 106 99 110 121 118 111 108 58 352 2 4 5 8 360 358 352 345 350 341 317 311 295 302 307 319 326 316 317 324 323 306 289 273 247 217 205 194 195 192 194 196 192 177 177 179 182 170 163 172 158 147 159 174
80 251 286 41 14 346 292 1 122 213 253 300 36 124 132 163 279 199 121 108 135 153 192 194 200 198 195 195 190 180 172 162 143 152 158 144 142 143 150 161 152 146 140 117 110 109 122 128 121 112 98 92 349 15 12 5 14 356 347 348 341 347 337 311 316 329 335 325 328 322 325 320 328 342 330 322 267 246 234 211 203 193 194 195 202 196 179 179 176 178 170 170 161 164 169 165 179
211 266 272 296 224 249 305 351 59 173 50 297 323 13 74 222 272 131 156 128 205 217 192 206 221 221 217 200 199 193 183 167 142 141 151 146 146 153 156 164 170 135 121 124 118 123 133 126 119 121 105 96 359 33 30 6 13 2 345 335 337 328 326 323 319 313 329 333 333 333 333 328 343 350 350 325 276 228 246 217 218 205 195 193 190 199 197 178 176 167 166 159 162 169 178 179 170
277 222 285 359 10 244 200 204 278 334 67 279 290 69 110 297 272 177 252 181 223 226 207 208 210 204 195 188 195 194 185 161 125 149 153 153 154 160 167 153 145 145 139 127 116 114 117 124 126 126 126 165 142 70 42 14 15 17 3 345 340 330 339 336 324 344 349 340 341 339 340 343 343 348 348 352 350 228 201 177 229 257 213 180 191 153 70 302 196 173 173 172 173 170 184 190 189
260 44 19 335 15 10 1 59 100 58 40 263 238 227 130 227 226 199 165 218 201 202 167 233 205 185 194 194 188 182 178 168 136 154 154 154 162 156 154 138 143 122 113 118 112 115 125 132 151 139 178 164 55 61 51 4 356 36 359 344 341 332 337 338 349 350 349 347 345 339 343 338 335 336 344 346 8 2 10 177 236 244 258 210 179 152 164 155 236 227 184 178 179 175 176 185 201
55 27 30 15 343 6 33 344 43 90 273 261 295 360 81 126 259 234 232 252 184 167 189 186 198 194 183 188 194 185 179 173 159 158 154 142 138 133 131 126 142 118 114 131 114 126 138 159 156 136 91 91 72 64 41 359 334 11 2 343 338 327 336 344 350 342 341 329 330 333 335 338 332 325 348 351 8 6 1 356 347 352 337 162 121 172 156 188 196 212 196 192 184 183 177 176 186
43 54 32 67 292 30 341 11 10 148 187 241 129 194 27 29 218 207 206 261 209 194 179 181 183 189 183 193 192 191 186 182 167 168 153 154 143 144 128 149 144 122 155 159 128 145 164 169 170 108 67 147 107 88 58 354 339 329 338 324 325 324 343 337 332 324 323 322 323 331 339 339 334 336 349 1 353 359 4 9 5 343 331 127 162 165 183 194 207 201 198 192 187 182 187 188 186
26 45 86 67 37 34 187 280 226 322 298 265 266 62 108 262 327 187 155 219 193 193 191 163 172 179 183 187 191 191 192 192 178 167 148 154 151 148 157 169 164 170 171 151 149 151 169 178 168 83 92 131 95 60 47 14 327 306 304 335 313 314 324 322 312 309 315 317 319 327 328 332 336 333 332 342 339 347 353 3 27 335 112 121 188 181 185 191 180 70 261 244 198 197 190 187 192
202 248 123 155 142 161 300 231 206 218 221 290 314 108 205 109 243 305 134 124 101 100 126 156 169 177 178 183 186 188 189 200 159 154 149 163 163 161 169 181 181 174 166 148 156 159 166 159 99 101 112 117 107 105 55 360 319 314 312 320 319 323 305 318 301 298 310 325 321 319 320 325 330 329 321 315 336 351 342 350 23 11 327 175 176 151 165 182 154 195 200 207 222 209 193 187 195
293 118 90 50 303 143 303 205 172 241 322 355 356 127 170 141 264 47 70 78 70 97 118 131 150 163 167 174 191 195 194 172 155 158 160 171 170 174 178 191 181 170 164 157 161 172 155 132 119 134 138 149 134 115 13 265 299 298 320 328 323 318 319 327 323 321 317 307 307 311 312 316 317 319 321 326 325 342 356 351 13 35 44 11 38 51 326 219 178 188 204 203 224 221 205 194 196
281 51 8 243 190 123 292 357 330 65 53 302 226 20 29 23 19 336 6 94 84 94 124 138 157 170 164 188 201 193 181 163 168 169 166 172 174 177 178 185 197 167 155 170 177 179 151 128 132 132 132 145 146 142 79 294 321 307 327 323 322 326 325 324 318 312 319 321 322 316 312 309 307 318 321 322 328 337 347 9 16 23 48 54 50 50 347 304 198 164 190 195 208 229 217 217 193
68 36 277 287 64 123 121 249 327 55 114 254 23 162 203 75 261 286 334 110 189 162 185 171 169 165 178 199 201 191 182 182 179 170 171 170 169 174 190 192 195 171 162 172 170 147 132 147 148 142 144 134 193 145 97 10 346 322 319 329 315 314 322 319 319 323 325 333 331 327 323 323 321 313 313 320 343 336 340 355 20 16 17 38 34 15 356 339 144 120 132 151 188 141 161 187 210
88 251 228 69 323 350 324 84 359 336 349 299 356 350 285 166 215 131 254 222 218 217 237 197 196 196 203 201 204 200 185 174 174 167 161 168 169 176 179 196 223 119 158 161 134 127 134 147 157 149 157 175 171 171 100 16 324 311 317 310 300 313 324 319 318 326 331 334 329 327 327 318 322 332 337 345 346 336 328 322 352 14 21 33 97 57 304 328 202 144 89 115 55 89 109 78 281
21 39 17 341 102 165 19 203 177 119 252 76 257 42 240 222 224 187 203 214 203 201 212 218 210 206 202 193 198 186 179 178 168 162 165 172 176 173 194 204 209 149 157 147 134 140 134 140 138 156 164 188 176 102 87 22 299 318 342 333 323 321 319 314 325 327 325 327 320 321 322 330 328 323 334 339 339 343 336 319 321 348 13 42 52 42 306 15 334 171 172 192 206 186 109 115 336
339 26 337 355 352 219 109 356 72 192 195 167 173 328 282 267 218 187 238 201 202 192 205 213 218 217 205 191 185 179 179 172 166 164 167 170 178 195 210 215 166 154 143 131 138 141 151 160 147 141 134 173 147 142 118 267 282 301 360 343 328 323 325 320 327 326 318 324 325 321 318 310 320 335 338 342 349 345 349 337 323 329 341 355 40 32 57 61 49 126 193 214 186 196 177 180 172
152 144 101 179 52 32 48 271 348 40 73 224 120 248 267 268 207 204 189 230 182 201 198 210 220 219 198 191 186 175 172 180 167 168 166 175 189 207 220 159 121 134 122 129 135 132 153 161 167 160 158 171 156 145 146 267 266 299 330 356 334 328 321 330 335 324 326 335 328 318 314 318 328 323 339 344 351 355 360 1 350 329 328 328 339 85 91 84 56 54 26 48 344 263 192 178 170